STARLINK-32175, 60339

Orbit data source: Space-Track

STARLINK-32175, 60339 is a payload satellite owned by SpaceX/Seattle (US) in LEO that was launched on Fri, 02 Aug 2024 UTC via an FALCON 9 launch vehicle from the Air Force Eastern Test Range (AFETR). Payload-class satellites include a variety of spacecraft equipped with specific instruments for various scientific and technological missions. These include communications satellites like Starlink; space stations such as the ISS; scientific satellites like the Hubble; Earth observation satellites from companies like Planet Labs, Umbra, and HawkEye 360; GPS; miniature CubeSats for education and research; and military/defense satellites.

Loading next visibility...
Identifier
60339, 2024-136L
Orbit
LEO
Last TLE update
21 hours ago
Origin
Manufacturer
SpaceX/Seattle
Mission
Operational Commercial Communications
Bus & Motor
STARLINK V2M, Unknown motor
Mass
730 kg wet, ~700 kg dry
Launch date (UTC)
2024-08-02 (11 months ago)
Launch vehicle
FALCON 9
Launch site
Air Force Eastern Test Range (AFETR)
Object type
Payload
Rocket body
Debris
Shape & HBR
Box + 2 Pan, 29 m
Radar Cross Section
33.884 m², Large (>1 m²)

Expand to show TLE details & history

TLE from 21 hours ago
0 STARLINK-32175
1 60339U 24136L   25181.24490432  .00000328  00000-0  23205-4 0  9991
2 60339  53.1597 168.2828 0001189  82.2837 277.8299 15.30193898 51015
Epoch: 2025-06-30T05:52Z
TLE epoch observation values (Epoch: 2025-06-30T05:52:39.733Z)
Latitude
0.00001°
Longitude
161.55977°
Altitude
476.022 km
Speed
7.629 km/s
True Right ascension
11h 13m 07s
True Declination
0° 00' 00"
Sunlit
Object was in daylight at epoch
Visualization orbit readout
Latitude
51.75295°
Longitude
-131.50824°
Altitude
480.641 km
Speed
7.632 km/s
Apparent Right ascension
22h 16m 37s
Apparent Declination
34° 51' 09"
Sunlit
Object is in daylight
Visualization observer readout
Local Sidereal Time
14:12:56
Azimuth
44.801° NE
Elevation
2.479°
Doppler factor
1
Orbital elements
Apogee altitude
476.305 km
Perigee altitude
474.675 km
Semi-major axis
6,853.627 km
Eccentricity
0.00012
Inclination
53.1597°
RAAN
168.2828°
Arg. of periapsis
82.2837°
True anomaly
Unknown
Mean anomaly
277.8299°
Eccentric anomaly
Unknown
Mean motion
3.82527 °/min
Orbital period
94.11 mins
BSTAR
0.000023205
Loading maneuver chart data...
Loading SW <> Apogee altitude chart data...
Loading historical data...
Loading historical data...
Loading historical data...
Loading historical data...
Loading historical data...
Loading historical data...
Loading historical data...

STARLINK-32175 Visibility forecast

Observer location: undefined°, undefined°

Span
Click to sort rows by Start time (UTC) header in descending order
Start Az.
Max El. time (UTC)
Max El. Az.
Max El.
End time (UTC)
End Az.
4 mins2025-07-01 07:25:46.942Z346.116° N2025-07-01 07:27:46.942Z33.762° NE22.668°2025-07-01 07:29:46.942Z75.41° E
5 mins2025-07-01 09:03:46.942Z288.621° WNW2025-07-01 09:05:46.942Z215.282° SW36.968°2025-07-01 09:08:46.942Z151.082° SSE
5 mins2025-07-02 01:58:46.942Z254.176° W2025-07-02 02:00:46.942Z301.674° NW36.537°2025-07-02 02:03:46.942Z36.516° NE
|